Wind_Speed
26 27 27 27 27 26 27 28 28 29 29 29 29 29 29 30 30 30 30 30 29 29 28 26 26 27 26 26 25 26 27 26 26 26 26 26 26 25 25 25 24 24 24
27 27 27 27 27 27 28 29 29 29 29 30 30 30 30 30 30 30 30 30 30 30 30 28 28 28 27 27 27 27 27 27 27 26 26 26 26 26 26 26 25 25 26
27 27 27 27 28 29 30 30 30 30 30 30 30 30 30 30 30 30 31 31 31 30 31 30 29 29 29 28 28 28 28 28 28 27 27 26 26 26 26 26 26 26 26
27 27 27 28 28 29 30 31 31 30 31 31 30 30 30 30 30 30 31 31 31 31 31 31 30 30 30 29 29 28 28 28 28 28 28 27 26 26 27 26 26 25 25
27 27 28 29 29 30 30 31 31 31 31 31 30 30 30 30 30 30 30 30 30 31 31 31 30 29 29 29 29 29 28 28 28 28 28 28 27 27 27 26 26 25 25
27 27 28 30 30 30 30 31 31 31 31 31 30 30 29 29 29 29 30 30 30 31 31 31 30 30 29 29 29 29 28 27 27 28 29 28 28 27 26 26 27 27 27
28 28 28 29 29 29 29 29 30 30 30 31 30 30 30 29 29 29 30 30 31 31 31 31 31 30 30 29 30 30 29 29 29 28 28 28 28 27 27 26 27 27 27
29 28 28 28 28 29 29 29 29 30 30 30 29 29 30 29 30 30 30 30 30 30 30 30 30 30 30 29 29 30 30 30 29 28 28 28 28 27 27 27 27 27 26
29 29 28 29 29 29 29 29 29 30 30 30 30 30 30 30 30 30 30 30 30 30 30 29 29 29 29 29 29 29 30 29 29 29 29 28 28 27 27 27 27 26 26
29 29 28 27 28 28 28 28 29 29 30 30 30 30 30 29 29 29 30 30 30 29 29 29 29 29 29 29 29 28 29 28 27 27 28 28 27 27 28 27 27 27 27
28 27 26 26 27 27 26 27 27 27 28 28 29 29 29 29 29 29 29 29 29 29 29 29 29 29 29 29 29 28 27 27 26 26 27 27 27 27 27 28 28 28 28
27 27 27 27 27 26 26 25 25 26 27 28 28 27 27 27 27 27 27 27 27 28 28 28 29 30 29 28 28 27 26 26 26 26 26 26 26 27 28 28 28 28 28
28 27 27 28 27 26 25 25 25 25 25 27 27 26 26 26 26 26 26 26 27 28 28 28 28 28 29 28 27 26 26 26 26 26 26 26 26 27 28 28 28 28 28
28 28 28 27 27 26 26 26 26 26 26 26 26 26 26 26 26 27 27 27 27 28 28 27 27 27 27 27 27 27 27 27 26 27 27 27 27 27 27 28 28 27 27
28 28 28 27 27 27 27 27 27 27 27 26 26 26 26 26 27 27 27 26 26 26 26 27 27 27 26 26 27 27 27 27 27 27 27 27 27 26 27 27 27 27 27
28 28 28 28 28 28 28 28 28 28 27 26 26 25 25 26 26 27 27 27 27 27 27 27 27 27 27 27 27 27 27 27 27 27 27 27 27 27 27 27 27 27 26
28 28 28 28 28 28 28 28 28 28 27 26 26 26 25 26 26 26 27 27 27 27 27 27 27 27 28 28 27 28 28 28 28 27 27 28 28 28 27 27 26 26 26
27 28 28 28 28 28 28 28 27 27 27 27 27 27 27 26 27 27 27 27 28 28 28 28 28 27 28 28 28 28 28 28 28 28 28 28 28 28 27 27 26 26 26
26 26 27 27 27 27 27 27 27 26 26 27 27 27 26 26 26 26 26 26 27 28 29 29 28 27 27 27 28 28 28 28 28 28 28 28 28 28 28 27 27 27 27
25 25 25 26 26 27 27 27 26 26 26 26 27 26 26 26 27 27 27 27 27 27 28 28 28 28 27 27 27 28 28 28 29 29 28 28 29 29 29 28 28 28 28
25 25 25 25 25 26 26 27 27 27 27 27 27 27 27 26 27 27 27 27 28 27 27 27 27 28 27 27 27 27 27 27 28 28 28 28 28 29 29 28 28 28 28
25 25 25 24 24 25 26 26 26 26 27 26 26 26 26 26 27 26 26 26 27 27 27 27 27 28 28 28 27 26 26 27 28 28 28 29 29 30 30 30 29 29 30
24 24 24 24 24 24 25 25 25 26 26 26 26 26 26 26 26 25 26 26 25 25 26 26 26 27 27 27 26 27 27 28 28 29 29 29 29 29 30 30 30 30 30
24 25 25 25 25 25 25 25 25 25 26 26 26 26 26 26 26 26 25 25 25 25 25 26 26 27 27 27 27 28 28 28 29 29 29 29 29 29 29 30 31 31 31
24 25 25 25 24 24 24 24 24 24 25 26 26 27 27 27 26 26 26 25 25 25 26 26 26 27 27 28 28 29 29 29 28 28 29 29 29 29 29 30 31 31 32
24 24 25 25 25 25 24 24 24 25 25 26 27 27 27 26 26 26 26 26 26 26 26 26 26 26 27 28 28 29 29 29 29 29 29 29 29 29 30 30 31 31 32
Wind_Direction
282 281 280 280 281 282 281 281 282 282 281 280 280 279 278 277 276 274 273 273 273 271 271 272 271 272 273 274 276 275 274 273 273 273 273 273 272 273 273 273 272 271 270
283 282 280 279 281 282 282 282 282 282 282 281 281 281 279 278 277 276 275 274 272 272 271 271 269 271 273 274 275 275 274 272 272 272 272 272 272 271 271 272 271 271 269
284 283 281 281 282 282 283 282 282 282 282 281 281 282 281 279 279 278 276 275 274 273 271 271 271 271 271 272 273 273 273 272 271 271 271 271 271 270 270 270 270 269 268
284 283 282 283 285 284 283 282 281 281 280 280 281 281 281 280 279 278 277 276 275 274 272 271 271 272 272 272 273 272 272 270 270 270 270 270 270 269 269 269 269 268 267
284 283 283 285 285 284 283 282 282 281 280 280 280 282 282 281 279 277 276 276 276 274 273 272 272 272 271 272 273 272 272 270 270 270 270 270 269 269 269 270 269 268 268
283 282 285 285 285 285 283 281 281 281 281 281 280 282 282 281 280 277 276 276 277 276 273 272 272 272 272 271 272 272 273 272 272 271 270 269 268 268 269 270 270 269 268
282 282 285 286 285 285 283 281 281 282 282 281 280 281 281 281 280 278 277 276 277 276 272 271 271 272 272 271 271 272 273 274 273 272 270 269 269 267 268 269 270 269 269
282 284 286 287 287 286 283 282 281 281 281 282 281 282 283 282 282 281 279 277 277 277 274 272 272 271 271 272 271 273 275 276 273 272 269 269 269 268 268 268 269 269 269
283 286 287 287 286 285 285 283 282 281 281 281 282 283 282 282 282 281 280 279 278 277 275 271 270 270 270 272 272 274 274 275 273 270 269 268 268 268 268 269 268 268 270
285 285 286 286 287 286 284 283 283 283 283 282 282 283 283 282 281 280 281 280 278 277 276 273 269 269 270 272 272 273 274 274 272 271 269 267 267 268 270 269 268 268 268
284 285 287 287 287 287 285 284 284 286 287 286 285 285 284 282 281 282 282 280 279 278 276 273 269 269 270 271 271 272 273 272 270 269 269 268 269 269 269 269 269 269 268
283 284 286 286 287 287 288 286 285 286 287 288 289 287 285 284 283 282 282 281 279 279 277 274 270 268 270 269 269 268 268 268 269 269 268 267 267 267 268 269 271 271 269
282 283 284 283 284 285 286 288 287 286 287 289 288 287 284 284 283 282 282 281 280 279 279 277 274 271 270 267 267 267 267 267 267 267 267 268 268 269 268 269 270 269 268
282 282 281 280 282 285 284 286 289 289 288 288 286 285 285 284 283 282 282 281 281 280 278 276 274 272 272 268 268 267 267 266 266 266 267 269 269 269 269 268 267 268 267
283 281 280 279 281 283 284 286 288 290 291 289 286 283 283 283 282 282 281 280 281 281 278 277 275 273 272 271 270 268 267 266 266 266 267 269 270 269 269 269 268 268 267
282 281 280 281 282 283 283 286 288 290 291 289 287 285 283 283 282 281 280 280 279 279 280 279 277 275 272 270 269 268 267 267 266 265 265 267 269 269 268 268 269 269 269
284 282 281 282 283 283 285 287 288 289 291 290 289 287 285 285 284 281 279 277 278 278 279 280 280 277 273 270 270 270 268 268 267 264 264 266 267 268 268 268 268 268 269
284 282 282 283 283 283 284 286 288 288 288 289 289 289 288 287 285 284 282 280 278 277 277 278 279 278 275 272 270 270 269 267 266 265 264 264 265 266 266 267 269 269 269
286 282 281 282 283 283 283 285 286 287 288 289 289 288 288 287 287 286 285 282 280 279 278 278 278 278 275 272 271 270 270 267 266 266 265 264 264 265 265 266 268 269 269
287 284 281 281 282 283 284 285 287 288 289 290 289 288 288 288 287 286 285 284 283 281 280 278 277 276 274 272 270 270 269 267 267 266 266 265 265 264 264 265 267 268 268
289 287 284 283 283 284 285 286 287 288 288 288 289 289 289 288 288 286 285 284 284 282 281 280 278 276 274 271 271 269 267 267 267 265 265 265 263 262 264 265 265 266 267
289 288 286 285 285 284 285 287 287 288 290 290 290 290 289 290 289 288 286 285 283 281 280 280 279 278 276 273 270 268 268 267 266 265 267 267 265 262 262 262 264 265 266
287 287 287 286 287 286 285 286 287 288 290 290 290 291 291 290 288 287 287 286 284 281 279 279 278 277 275 272 269 269 270 269 268 268 268 268 266 263 262 263 264 265 266
286 287 287 287 287 287 287 287 287 288 289 290 291 291 291 291 289 289 289 288 286 283 282 280 279 277 274 272 272 272 273 272 271 270 270 269 267 264 264 264 265 265 267
287 287 287 287 288 287 287 287 287 288 289 290 292 293 292 292 291 290 289 289 288 287 285 284 281 279 276 274 273 272 273 274 274 272 271 269 268 266 266 266 266 267 267
287 288 288 288 288 287 287 287 288 289 291 292 292 292 292 293 293 292 291 289 288 288 287 286 284 281 278 276 275 274 273 274 274 273 271 269 268 268 268 268 269 270 270
Height
5785 5784 5783 5782 5782 5781 5780 5779 5779 5778 5777 5776 5775 5775 5774 5774 5773 5773 5772 5772 5772 5772 5772 5772 5772 5772 5772 5772 5772 5772 5772 5772 5772 5772 5772 5773 5772 5773 5773 5773 5774 5774 5775
5778 5776 5776 5775 5774 5773 5772 5772 5770 5769 5768 5768 5767 5766 5765 5765 5764 5763 5763 5763 5763 5763 5763 5764 5764 5764 5764 5764 5764 5764 5764 5764 5764 5765 5765 5765 5765 5765 5765 5766 5766 5767 5767
5770 5769 5768 5767 5766 5765 5764 5763 5762 5761 5760 5759 5758 5757 5756 5756 5755 5754 5754 5754 5754 5754 5755 5755 5755 5755 5756 5756 5756 5756 5756 5756 5756 5756 5757 5757 5757 5757 5758 5758 5758 5759 5760
5762 5761 5760 5759 5757 5756 5756 5755 5753 5752 5751 5750 5749 5748 5747 5747 5746 5745 5745 5745 5745 5745 5746 5746 5747 5747 5747 5747 5747 5747 5747 5748 5748 5748 5748 5749 5749 5749 5750 5750 5751 5751 5752
5754 5754 5752 5751 5749 5748 5747 5746 5745 5744 5743 5742 5741 5740 5739 5738 5737 5736 5736 5736 5736 5736 5737 5737 5738 5738 5738 5739 5739 5738 5738 5739 5739 5739 5740 5740 5741 5741 5742 5742 5743 5743 5744
5746 5745 5744 5743 5741 5739 5738 5737 5736 5735 5734 5733 5732 5731 5730 5729 5728 5728 5727 5727 5727 5727 5728 5728 5729 5729 5729 5730 5730 5730 5730 5730 5730 5730 5731 5732 5732 5733 5733 5733 5734 5735 5736
5738 5737 5736 5734 5732 5730 5730 5729 5728 5727 5726 5725 5724 5723 5722 5721 5720 5719 5718 5718 5718 5718 5718 5719 5719 5720 5720 5720 5721 5721 5721 5721 5721 5721 5722 5723 5723 5724 5725 5725 5726 5726 5727
5730 5729 5727 5725 5724 5722 5721 5720 5719 5719 5718 5716 5715 5714 5713 5713 5712 5711 5709 5709 5709 5709 5709 5709 5710 5710 5711 5711 5712 5712 5712 5712 5712 5713 5713 5713 5714 5715 5716 5716 5717 5717 5718
5721 5720 5718 5717 5715 5714 5713 5712 5711 5710 5709 5707 5707 5706 5705 5704 5703 5702 5701 5700 5700 5699 5699 5700 5700 5701 5702 5702 5703 5703 5703 5703 5703 5703 5704 5704 5705 5706 5707 5707 5708 5709 5710
5714 5712 5710 5709 5707 5706 5704 5703 5702 5701 5700 5699 5698 5697 5696 5695 5694 5693 5692 5691 5691 5690 5690 5690 5691 5691 5692 5692 5693 5693 5694 5694 5694 5694 5695 5696 5696 5697 5698 5698 5699 5700 5701
5705 5704 5703 5701 5699 5697 5696 5695 5694 5692 5691 5690 5689 5688 5687 5686 5685 5684 5683 5682 5681 5681 5681 5681 5681 5681 5682 5682 5683 5684 5685 5685 5685 5686 5686 5687 5687 5688 5689 5689 5690 5691 5691
5698 5696 5695 5693 5691 5690 5689 5687 5686 5685 5683 5682 5681 5679 5678 5677 5676 5675 5674 5673 5673 5672 5672 5671 5671 5672 5672 5673 5674 5675 5675 5676 5677 5677 5678 5678 5679 5680 5680 5680 5680 5681 5681
5689 5688 5687 5685 5684 5682 5681 5680 5678 5677 5676 5674 5673 5671 5670 5669 5668 5667 5666 5665 5664 5664 5663 5663 5662 5662 5663 5664 5665 5665 5667 5667 5668 5669 5669 5670 5670 5670 5671 5671 5671 5671 5672
5681 5680 5678 5677 5676 5674 5674 5672 5671 5669 5668 5667 5665 5663 5662 5661 5660 5660 5659 5658 5657 5656 5655 5655 5654 5654 5654 5655 5656 5657 5657 5658 5659 5660 5661 5661 5662 5662 5662 5662 5662 5663 5663
5673 5671 5670 5669 5668 5667 5666 5665 5663 5661 5660 5658 5656 5655 5654 5653 5652 5652 5650 5650 5649 5648 5647 5647 5646 5646 5646 5647 5647 5648 5649 5650 5650 5651 5652 5653 5653 5653 5653 5653 5654 5654 5654
5664 5663 5662 5661 5660 5659 5658 5656 5654 5653 5651 5649 5648 5647 5646 5645 5644 5643 5642 5641 5641 5640 5640 5639 5638 5638 5638 5638 5639 5639 5640 5641 5641 5642 5643 5644 5644 5644 5644 5645 5645 5645 5645
5655 5654 5653 5653 5651 5650 5649 5648 5646 5645 5643 5642 5640 5639 5638 5637 5636 5635 5634 5633 5632 5632 5631 5630 5630 5629 5629 5630 5630 5631 5631 5632 5632 5633 5634 5635 5635 5635 5636 5636 5636 5637 5637
5647 5645 5645 5644 5643 5642 5640 5639 5638 5637 5635 5634 5633 5631 5630 5628 5627 5626 5625 5624 5624 5623 5623 5622 5621 5621 5621 5621 5621 5621 5622 5623 5623 5624 5625 5626 5626 5626 5627 5627 5628 5628 5628
5638 5637 5636 5635 5634 5633 5632 5631 5630 5628 5627 5626 5624 5623 5622 5620 5619 5618 5617 5616 5616 5615 5614 5613 5613 5612 5612 5612 5612 5612 5613 5614 5614 5615 5616 5616 5617 5617 5618 5618 5619 5619 5619
5630 5629 5628 5627 5626 5625 5624 5623 5622 5621 5620 5618 5617 5615 5614 5613 5612 5610 5609 5608 5607 5606 5605 5605 5604 5603 5603 5603 5603 5603 5604 5605 5605 5606 5607 5607 5608 5608 5609 5609 5610 5610 5610
5623 5622 5620 5619 5619 5618 5617 5616 5615 5613 5612 5610 5609 5607 5606 5605 5603 5602 5601 5600 5599 5598 5597 5596 5595 5594 5594 5594 5594 5594 5595 5596 5596 5597 5597 5598 5598 5599 5599 5600 5600 5600 5601
5616 5614 5613 5612 5611 5610 5609 5607 5606 5605 5604 5602 5601 5600 5598 5597 5595 5594 5592 5591 5590 5589 5588 5587 5586 5586 5585 5585 5585 5586 5586 5586 5587 5587 5588 5588 5589 5589 5590 5590 5590 5591 5591
5608 5607 5606 5605 5603 5602 5601 5600 5599 5598 5596 5595 5593 5592 5590 5589 5587 5586 5584 5583 5582 5580 5579 5579 5578 5577 5577 5576 5576 5577 5577 5577 5577 5578 5578 5578 5578 5579 5579 5580 5580 5581 5581
5601 5600 5599 5597 5596 5595 5594 5593 5591 5590 5589 5587 5586 5584 5583 5581 5580 5578 5576 5575 5573 5572 5571 5570 5569 5569 5568 5568 5568 5568 5568 5568 5568 5568 5568 5568 5568 5569 5569 5570 5570 5571 5571
5594 5592 5591 5590 5589 5588 5586 5585 5584 5582 5581 5580 5578 5577 5575 5573 5572 5570 5569 5567 5566 5564 5563 5562 5561 5560 5560 5559 5559 5558 5558 5558 5558 5558 5558 5558 5558 5559 5559 5559 5559 5560 5560
5586 5585 5584 5583 5581 5580 5579 5578 5576 5575 5574 5572 5571 5569 5567 5566 5564 5562 5561 5559 5558 5556 5555 5553 5552 5552 5551 5550 5550 5549 5549 5549 5548 5548 5548 5548 5548 5548 5548 5549 5549 5549 5549